Check out our new BloomSky Weather System.

Active alerts

Galveston, TX
  Details for Galveston, TX Coastal Flood Advisory  +3 additional alerts
Fort Bend, TX
  Details for Fort Bend, TX Flash Flood Watch


Thunder radar  blitzortung!


Rain radar more information rain snow radar


Visit our other weather sites:

Template documentation
and downloads

And another site



Weather Underground History page Text

Daily Summary for February 4, 2017 Units:  English    Metric   Both
« Previous Day
Next Day »
Daily Weekly Monthly Yearly Custom
  High: Low: Average:
Temperature: TemperatureF °F 47.8 °F 54 °F
Dew Point: DewpointF °F 36.0 °F 46 °F
Humidity: Humidity % 63 % 74 %
Wind Speed: WindSpeedMPH mph 0.0 mph 2.3 mph
Wind Gust: WindSpeedGustMPH mph - -
Wind:- - ESE
Pressure: PressureIn in 30.11 in -
Precipitation: 0.00 in    
Historical Graphs
 
 
Tabular Data for February 4, 2017
Time Temperature Dew Point Pressure Wind Wind Speed Wind Gust Humidity Rainfall Rate (Hourly)
TemperatureF °F DewpointF °F PressureIn in Calm     Humidity % HourlyPrecipIn in
00:03 52.3 °F 42.1 °F 30.35 in NNE 2.0 mph 9.0 mph 68 % 0.00 in
00:08 52.3 °F 42.1 °F 30.35 in Calm   9.0 mph 68 % 0.00 in
00:13 52.3 °F 42.1 °F 30.35 in ENE 2.0 mph 9.0 mph 68 % 0.00 in
00:18 52.2 °F 41.9 °F 30.35 in ENE 1.0 mph 9.0 mph 68 % 0.00 in
00:23 52.2 °F 41.9 °F 30.35 in ENE 2.0 mph 9.0 mph 68 % 0.00 in
00:28 52.2 °F 41.9 °F 30.34 in NNW 3.0 mph 9.0 mph 68 % 0.00 in
00:33 52.2 °F 41.9 °F 30.34 in East 2.0 mph 12.0 mph 68 % 0.00 in
00:38 52.2 °F 41.9 °F 30.33 in ESE 1.0 mph 12.0 mph 68 % 0.00 in
00:43 52.0 °F 41.7 °F 30.33 in ENE 8.0 mph 12.0 mph 68 % 0.00 in
00:48 52.0 °F 41.7 °F 30.34 in NE 8.0 mph 9.0 mph 68 % 0.00 in
00:53 52.0 °F 42.1 °F 30.34 in East 1.0 mph 9.0 mph 69 % 0.00 in
00:58 51.8 °F 41.9 °F 30.34 in ENE 3.0 mph 9.0 mph 69 % 0.00 in
01:03 51.8 °F 41.9 °F 30.33 in SSE 4.0 mph 9.0 mph 69 % 0.00 in
01:08 51.6 °F 41.7 °F 30.33 in East 8.0 mph 13.0 mph 69 % 0.00 in
01:13 51.6 °F 41.7 °F 30.33 in ENE 4.0 mph 13.0 mph 69 % 0.00 in
01:18 51.6 °F 42.1 °F 30.33 in ENE 3.0 mph 13.0 mph 70 % 0.00 in
01:23 51.6 °F 42.1 °F 30.32 in East 1.0 mph 10.0 mph 70 % 0.00 in
01:28 51.6 °F 42.1 °F 30.32 in North 5.0 mph 9.0 mph 70 % 0.00 in
01:33 51.4 °F 41.9 °F 30.31 in ENE 5.0 mph 11.0 mph 70 % 0.00 in
01:39 51.4 °F 41.9 °F 30.32 in ENE 4.0 mph 11.0 mph 70 % 0.00 in
01:44 51.3 °F 41.9 °F 30.32 in ESE 2.0 mph 11.0 mph 70 % 0.00 in
01:49 51.3 °F 42.3 °F 30.32 in SE 1.0 mph 12.0 mph 71 % 0.00 in
01:54 51.1 °F 42.1 °F 30.32 in East 1.0 mph 12.0 mph 71 % 0.00 in
01:59 51.1 °F 42.1 °F 30.32 in Calm   12.0 mph 71 % 0.00 in
02:04 51.1 °F 42.1 °F 30.31 in ESE 3.0 mph 10.0 mph 71 % 0.00 in
02:09 50.9 °F 41.9 °F 30.31 in East 4.0 mph 10.0 mph 71 % 0.00 in
02:14 50.7 °F 41.7 °F 30.30 in East 4.0 mph 7.0 mph 71 % 0.00 in
02:19 50.7 °F 42.1 °F 30.30 in East 5.0 mph 7.0 mph 72 % 0.00 in
02:24 50.7 °F 41.7 °F 30.30 in East 7.0 mph 8.0 mph 71 % 0.00 in
02:29 50.7 °F 42.1 °F 30.30 in ESE 4.0 mph 12.0 mph 72 % 0.00 in
02:34 50.5 °F 41.9 °F 30.30 in ESE 4.0 mph 12.0 mph 72 % 0.00 in
02:39 50.5 °F 41.9 °F 30.30 in Calm   12.0 mph 72 % 0.00 in
02:44 50.5 °F 41.9 °F 30.30 in North 5.0 mph 12.0 mph 72 % 0.00 in
02:49 50.5 °F 41.9 °F 30.31 in North 1.0 mph 12.0 mph 72 % 0.00 in
02:54 50.5 °F 41.9 °F 30.31 in ENE 4.0 mph 12.0 mph 72 % 0.00 in
02:59 50.5 °F 41.9 °F 30.31 in Calm   9.0 mph 72 % 0.00 in
03:04 50.4 °F 41.7 °F 30.30 in ESE 2.0 mph 9.0 mph 72 % 0.00 in
03:09 50.4 °F 41.7 °F 30.30 in East 1.0 mph 9.0 mph 72 % 0.00 in
03:14 50.4 °F 42.1 °F 30.30 in ENE 1.0 mph 9.0 mph 73 % 0.00 in
03:19 50.4 °F 41.7 °F 30.31 in NE 2.0 mph 9.0 mph 72 % 0.00 in
03:24 50.2 °F 41.9 °F 30.30 in NNE 1.0 mph 8.0 mph 73 % 0.00 in
03:30 50.2 °F 41.5 °F 30.30 in ENE 6.0 mph 8.0 mph 72 % 0.00 in
03:35 50.0 °F 41.7 °F 30.30 in ENE 4.0 mph 6.0 mph 73 % 0.00 in
03:40 50.0 °F 41.7 °F 30.29 in SE 1.0 mph 6.0 mph 73 % 0.00 in
03:45 49.8 °F 41.5 °F 30.29 in North 2.0 mph 6.0 mph 73 % 0.00 in
03:50 49.8 °F 41.5 °F 30.29 in East 2.0 mph 6.0 mph 73 % 0.00 in
03:51 49.8 °F 41.5 °F 30.29 in SE 4.0 mph 6.0 mph 73 % 0.00 in
03:56 49.6 °F 41.4 °F 30.28 in ENE 4.0 mph 8.0 mph 73 % 0.00 in
04:01 49.6 °F 41.4 °F 30.28 in ENE 2.0 mph 8.0 mph 73 % 0.00 in
04:06 49.6 °F 41.4 °F 30.28 in East 2.0 mph 8.0 mph 73 % 0.00 in
04:11 49.5 °F 41.2 °F 30.28 in East 1.0 mph 6.0 mph 73 % 0.00 in
04:16 49.3 °F 41.0 °F 30.28 in ENE 3.0 mph 5.0 mph 73 % 0.00 in
04:21 49.3 °F 41.0 °F 30.28 in ENE 2.0 mph 8.0 mph 73 % 0.00 in
04:26 48.9 °F 40.6 °F 30.28 in NE 1.0 mph 8.0 mph 73 % 0.00 in
04:31 48.7 °F 40.5 °F 30.28 in NNE 2.0 mph 8.0 mph 73 % 0.00 in
04:36 48.7 °F 40.5 °F 30.28 in East 2.0 mph 7.0 mph 73 % 0.00 in
04:41 48.7 °F 40.5 °F 30.27 in East 2.0 mph 8.0 mph 73 % 0.00 in
04:46 48.7 °F 40.5 °F 30.27 in East 3.0 mph 8.0 mph 73 % 0.00 in
04:51 48.6 °F 40.3 °F 30.28 in ENE 2.0 mph 8.0 mph 73 % 0.00 in
04:56 48.6 °F 39.9 °F 30.28 in NE 1.0 mph 8.0 mph 72 % 0.00 in
05:01 48.6 °F 39.6 °F 30.28 in NE 2.0 mph 8.0 mph 71 % 0.00 in
05:06 48.6 °F 39.6 °F 30.27 in East 1.0 mph 6.0 mph 71 % 0.00 in
05:11 48.6 °F 39.6 °F 30.27 in ENE 2.0 mph 6.0 mph 71 % 0.00 in
05:12 48.6 °F 39.6 °F 30.27 in ENE 3.0 mph 6.0 mph 71 % 0.00 in
05:17 48.4 °F 39.0 °F 30.27 in East 3.0 mph 7.0 mph 70 % 0.00 in
05:22 48.4 °F 39.0 °F 30.28 in SSE 1.0 mph 8.0 mph 70 % 0.00 in
05:27 48.4 °F 39.0 °F 30.28 in East 3.0 mph 8.0 mph 70 % 0.00 in
05:32 48.4 °F 39.0 °F 30.28 in ENE 2.0 mph 8.0 mph 70 % 0.00 in
05:37 48.4 °F 38.7 °F 30.28 in Calm   6.0 mph 69 % 0.00 in
05:38 48.4 °F 38.7 °F 30.28 in ENE 1.0 mph 6.0 mph 69 % 0.00 in
05:43 48.4 °F 38.7 °F 30.28 in East 2.0 mph 6.0 mph 69 % 0.00 in
05:48 48.4 °F 38.7 °F 30.28 in East 2.0 mph 6.0 mph 69 % 0.00 in
05:53 48.4 °F 38.7 °F 30.28 in NNW 1.0 mph 6.0 mph 69 % 0.00 in
05:58 48.4 °F 39.0 °F 30.28 in SE 1.0 mph 6.0 mph 70 % 0.00 in
06:03 48.4 °F 39.0 °F 30.28 in SE 2.0 mph 6.0 mph 70 % 0.00 in
06:08 48.6 °F 38.8 °F 30.28 in ESE 2.0 mph 6.0 mph 69 % 0.00 in
06:13 48.4 °F 37.9 °F 30.29 in ESE 3.0 mph 5.0 mph 67 % 0.00 in
06:18 48.4 °F 37.2 °F 30.29 in East 1.0 mph 6.0 mph 65 % 0.00 in
06:23 48.4 °F 36.7 °F 30.29 in ESE 1.0 mph 6.0 mph 64 % 0.00 in
06:28 48.4 °F 36.3 °F 30.30 in East 3.0 mph 6.0 mph 63 % 0.00 in
06:33 48.0 °F 36.0 °F 30.30 in ESE 1.0 mph 5.0 mph 63 % 0.00 in
06:38 48.0 °F 36.0 °F 30.30 in East 4.0 mph 6.0 mph 63 % 0.00 in
06:43 48.0 °F 36.0 °F 30.30 in East 3.0 mph 6.0 mph 63 % 0.00 in
06:48 48.0 °F 36.0 °F 30.30 in ESE 1.0 mph 6.0 mph 63 % 0.00 in
06:53 48.0 °F 36.5 °F 30.30 in ESE 4.0 mph 6.0 mph 64 % 0.00 in
06:58 48.0 °F 36.5 °F 30.30 in East 2.0 mph 5.0 mph 64 % 0.00 in
07:03 48.0 °F 36.5 °F 30.31 in East 1.0 mph 5.0 mph 64 % 0.00 in
07:09 48.0 °F 36.0 °F 30.30 in North 1.0 mph 5.0 mph 63 % 0.00 in
07:14 48.0 °F 36.0 °F 30.30 in ESE 1.0 mph 6.0 mph 63 % 0.00 in
07:19 48.0 °F 36.5 °F 30.30 in NE 1.0 mph 6.0 mph 64 % 0.00 in
07:24 48.0 °F 36.0 °F 30.30 in ENE 1.0 mph 6.0 mph 63 % 0.00 in
07:29 47.8 °F 36.3 °F 30.30 in SE 2.0 mph 6.0 mph 64 % 0.00 in
07:34 47.8 °F 36.3 °F 30.30 in Calm   6.0 mph 64 % 0.00 in
07:39 48.0 °F 36.5 °F 30.31 in East 1.0 mph 6.0 mph 64 % 0.00 in
07:44 48.0 °F 36.5 °F 30.31 in NNE 3.0 mph 6.0 mph 64 % 0.00 in
07:49 48.0 °F 36.5 °F 30.30 in East 1.0 mph 5.0 mph 64 % 0.00 in
07:54 48.0 °F 36.5 °F 30.30 in NE 1.0 mph 6.0 mph 64 % 0.00 in
07:59 48.0 °F 36.5 °F 30.30 in East 1.0 mph 6.0 mph 64 % 0.00 in
08:04 48.0 °F 36.5 °F 30.31 in NNW 2.0 mph 6.0 mph 64 % 0.00 in
08:09 48.0 °F 36.5 °F 30.31 in Calm   6.0 mph 64 % 0.00 in
08:14 48.0 °F 36.9 °F 30.31 in Calm   5.0 mph 65 % 0.00 in
08:19 48.2 °F 36.7 °F 30.31 in ENE 1.0 mph 4.0 mph 64 % 0.00 in
08:24 48.2 °F 36.7 °F 30.31 in ENE 3.0 mph 7.0 mph 64 % 0.00 in
08:29 48.2 °F 37.0 °F 30.31 in NW 1.0 mph 7.0 mph 65 % 0.00 in
08:34 48.4 °F 37.2 °F 30.31 in Calm   7.0 mph 65 % 0.00 in
08:39 48.2 °F 36.7 °F 30.31 in East 1.0 mph 7.0 mph 64 % 0.00 in
08:44 48.4 °F 37.2 °F 30.31 in SW 1.0 mph 9.0 mph 65 % 0.00 in
08:49 48.2 °F 37.0 °F 30.31 in Calm   9.0 mph 65 % 0.00 in
08:54 48.0 °F 36.9 °F 30.32 in Calm   9.0 mph 65 % 0.00 in
08:59 48.4 °F 37.6 °F 30.32 in WNW 1.0 mph 7.0 mph 66 % 0.00 in
09:04 48.4 °F 37.2 °F 30.32 in ENE 1.0 mph 7.0 mph 65 % 0.00 in
09:09 48.4 °F 37.6 °F 30.32 in NNW 1.0 mph 7.0 mph 66 % 0.00 in
09:14 48.4 °F 37.2 °F 30.32 in East 2.0 mph 6.0 mph 65 % 0.00 in
09:19 48.6 °F 37.8 °F 30.32 in ESE 1.0 mph 6.0 mph 66 % 0.00 in
09:24 48.7 °F 37.9 °F 30.32 in Calm   6.0 mph 66 % 0.00 in
09:29 49.1 °F 38.3 °F 30.32 in ENE 3.0 mph 6.0 mph 66 % 0.00 in
09:35 49.1 °F 38.3 °F 30.32 in NNW 2.0 mph 6.0 mph 66 % 0.00 in
09:40 49.3 °F 38.5 °F 30.32 in North 3.0 mph 6.0 mph 66 % 0.00 in
09:45 49.3 °F 38.5 °F 30.32 in NNE 1.0 mph 6.0 mph 66 % 0.00 in
09:50 49.5 °F 38.7 °F 30.32 in NNW 3.0 mph 6.0 mph 66 % 0.00 in
09:55 49.6 °F 38.3 °F 30.32 in ENE 5.0 mph 6.0 mph 65 % 0.00 in
10:00 49.6 °F 38.3 °F 30.32 in Calm   7.0 mph 65 % 0.00 in
10:05 49.8 °F 38.5 °F 30.32 in ENE 2.0 mph 7.0 mph 65 % 0.00 in
10:10 50.2 °F 39.2 °F 30.33 in Calm   7.0 mph 66 % 0.00 in
10:15 50.5 °F 39.6 °F 30.33 in Calm   7.0 mph 66 % 0.00 in
10:20 50.5 °F 39.2 °F 30.33 in SE 1.0 mph 6.0 mph 65 % 0.00 in
10:25 50.5 °F 39.2 °F 30.34 in ENE 2.0 mph 6.0 mph 65 % 0.00 in
10:30 50.4 °F 39.4 °F 30.34 in ENE 2.0 mph 6.0 mph 66 % 0.00 in
10:35 50.5 °F 39.9 °F 30.33 in East 1.0 mph 6.0 mph 67 % 0.00 in
10:40 50.5 °F 39.6 °F 30.33 in ESE 1.0 mph 6.0 mph 66 % 0.00 in
10:45 50.5 °F 39.9 °F 30.33 in ENE 2.0 mph 5.0 mph 67 % 0.00 in
10:50 50.7 °F 40.1 °F 30.33 in SE 3.0 mph 5.0 mph 67 % 0.00 in
10:55 50.7 °F 40.1 °F 30.33 in ESE 1.0 mph 5.0 mph 67 % 0.00 in
11:00 50.7 °F 39.7 °F 30.33 in NNW 1.0 mph 4.0 mph 66 % 0.00 in
11:05 50.7 °F 39.7 °F 30.32 in NNE 3.0 mph 4.0 mph 66 % 0.00 in
11:10 51.1 °F 40.5 °F 30.32 in East 3.0 mph 4.0 mph 67 % 0.00 in
11:15 51.1 °F 40.1 °F 30.32 in NNE 2.0 mph 4.0 mph 66 % 0.00 in
11:20 51.1 °F 40.5 °F 30.32 in NW 1.0 mph 7.0 mph 67 % 0.00 in
11:25 51.3 °F 40.6 °F 30.32 in Calm   7.0 mph 67 % 0.00 in
11:31 51.6 °F 40.6 °F 30.32 in NE 2.0 mph 7.0 mph 66 % 0.00 in
11:36 51.4 °F 40.8 °F 30.31 in Calm   5.0 mph 67 % 0.00 in
11:37 51.4 °F 40.8 °F 30.31 in ENE 1.0 mph 5.0 mph 67 % 0.00 in
11:42 51.6 °F 41.0 °F 30.30 in East 1.0 mph 5.0 mph 67 % 0.00 in
11:47 52.2 °F 41.5 °F 30.30 in SE 1.0 mph 5.0 mph 67 % 0.00 in
11:52 52.3 °F 41.7 °F 30.30 in ESE 3.0 mph 6.0 mph 67 % 0.00 in
11:57 52.7 °F 42.1 °F 30.29 in NNW 1.0 mph 7.0 mph 67 % 0.00 in
12:02 53.2 °F 42.6 °F 30.29 in ESE 5.0 mph 7.0 mph 67 % 0.00 in
12:07 53.4 °F 41.9 °F 30.28 in Calm   7.0 mph 65 % 0.00 in
12:12 53.6 °F 42.4 °F 30.28 in ESE 2.0 mph 6.0 mph 66 % 0.00 in
12:17 53.8 °F 42.6 °F 30.27 in East 5.0 mph 6.0 mph 66 % 0.00 in
12:22 54.1 °F 43.0 °F 30.27 in ESE 4.0 mph 6.0 mph 66 % 0.00 in
12:27 54.3 °F 43.2 °F 30.26 in East 4.0 mph 7.0 mph 66 % 0.00 in
12:32 54.7 °F 43.9 °F 30.26 in ENE 5.0 mph 7.0 mph 67 % 0.00 in
12:37 55.0 °F 44.2 °F 30.26 in NW 1.0 mph 7.0 mph 67 % 0.00 in
12:42 55.4 °F 44.2 °F 30.25 in ENE 1.0 mph 7.0 mph 66 % 0.00 in
12:47 55.6 °F 44.4 °F 30.25 in East 2.0 mph 6.0 mph 66 % 0.00 in
12:52 55.2 °F 44.4 °F 30.25 in ENE 1.0 mph 7.0 mph 67 % 0.00 in
12:58 55.4 °F 44.6 °F 30.25 in East 1.0 mph 7.0 mph 67 % 0.00 in
13:03 55.6 °F 45.1 °F 30.24 in ENE 4.0 mph 7.0 mph 68 % 0.00 in
13:08 55.2 °F 44.8 °F 30.24 in ESE 1.0 mph 5.0 mph 68 % 0.00 in
13:13 55.4 °F 45.0 °F 30.23 in SSE 3.0 mph 5.0 mph 68 % 0.00 in
13:18 55.4 °F 45.3 °F 30.23 in SE 3.0 mph 7.0 mph 69 % 0.00 in
13:23 55.4 °F 45.3 °F 30.23 in SSE 2.0 mph 8.0 mph 69 % 0.00 in
13:28 55.6 °F 45.5 °F 30.23 in ESE 3.0 mph 8.0 mph 69 % 0.00 in
13:33 55.6 °F 46.0 °F 30.23 in ESE 2.0 mph 8.0 mph 70 % 0.00 in
13:38 55.8 °F 46.6 °F 30.22 in East 3.0 mph 7.0 mph 71 % 0.00 in
13:43 55.8 °F 46.9 °F 30.22 in ENE 2.0 mph 7.0 mph 72 % 0.00 in
13:48 55.9 °F 47.1 °F 30.21 in ESE 6.0 mph 6.0 mph 72 % 0.00 in
13:53 55.8 °F 46.9 °F 30.21 in ESE 4.0 mph 7.0 mph 72 % 0.00 in
13:58 55.9 °F 46.8 °F 30.21 in SE 2.0 mph 7.0 mph 71 % 0.00 in
14:03 56.1 °F 47.3 °F 30.21 in East 2.0 mph 7.0 mph 72 % 0.00 in
14:08 56.3 °F 47.8 °F 30.20 in East 3.0 mph 7.0 mph 73 % 0.00 in
14:13 56.3 °F 47.5 °F 30.20 in ESE 3.0 mph 6.0 mph 72 % 0.00 in
14:18 56.7 °F 48.0 °F 30.20 in SSE 2.0 mph 6.0 mph 73 % 0.00 in
14:23 56.8 °F 47.5 °F 30.19 in ENE 1.0 mph 6.0 mph 71 % 0.00 in
14:28 57.0 °F 47.7 °F 30.19 in East 2.0 mph 6.0 mph 71 % 0.00 in
14:33 57.0 °F 47.7 °F 30.19 in SE 4.0 mph 7.0 mph 71 % 0.00 in
14:38 57.4 °F 48.0 °F 30.19 in East 3.0 mph 7.0 mph 71 % 0.00 in
14:44 57.2 °F 47.8 °F 30.19 in SE 2.0 mph 7.0 mph 71 % 0.00 in
14:49 57.0 °F 47.7 °F 30.19 in SSE 4.0 mph 7.0 mph 71 % 0.00 in
14:54 57.0 °F 48.0 °F 30.18 in ENE 3.0 mph 7.0 mph 72 % 0.00 in
14:59 57.0 °F 48.0 °F 30.18 in SE 2.0 mph 7.0 mph 72 % 0.00 in
15:04 57.4 °F 48.4 °F 30.18 in SE 4.0 mph 6.0 mph 72 % 0.00 in
15:09 57.7 °F 48.4 °F 30.17 in SSE 4.0 mph 6.0 mph 71 % 0.00 in
15:14 57.7 °F 48.7 °F 30.17 in SE 2.0 mph 9.0 mph 72 % 0.00 in
15:19 58.1 °F 49.1 °F 30.17 in ESE 4.0 mph 9.0 mph 72 % 0.00 in
15:24 58.3 °F 49.3 °F 30.17 in ESE 4.0 mph 9.0 mph 72 % 0.00 in
15:29 58.3 °F 49.3 °F 30.17 in ESE 4.0 mph 9.0 mph 72 % 0.00 in
15:34 58.3 °F 49.6 °F 30.17 in SE 7.0 mph 9.0 mph 73 % 0.00 in
15:39 58.5 °F 49.8 °F 30.16 in East 4.0 mph 8.0 mph 73 % 0.00 in
15:44 58.8 °F 49.8 °F 30.17 in SE 1.0 mph 8.0 mph 72 % 0.00 in
15:49 59.4 °F 50.7 °F 30.16 in ENE 3.0 mph 7.0 mph 73 % 0.00 in
15:54 59.2 °F 50.2 °F 30.16 in East 6.0 mph 7.0 mph 72 % 0.00 in
15:59 59.0 °F 50.7 °F 30.16 in SE 5.0 mph 7.0 mph 74 % 0.00 in
16:04 58.8 °F 50.9 °F 30.15 in SE 1.0 mph 10.0 mph 75 % 0.00 in
16:09 58.8 °F 50.9 °F 30.15 in SSE 3.0 mph 10.0 mph 75 % 0.00 in
16:14 59.0 °F 51.1 °F 30.15 in East 3.0 mph 10.0 mph 75 % 0.00 in
16:19 59.2 °F 51.3 °F 30.15 in ESE 1.0 mph 10.0 mph 75 % 0.00 in
16:24 59.2 °F 51.3 °F 30.15 in SSE 2.0 mph 10.0 mph 75 % 0.00 in
16:29 59.2 °F 51.6 °F 30.15 in East 3.0 mph 8.0 mph 76 % 0.00 in
16:34 59.2 °F 51.6 °F 30.15 in SE 2.0 mph 9.0 mph 76 % 0.00 in
16:39 58.8 °F 51.3 °F 30.15 in ESE 4.0 mph 9.0 mph 76 % 0.00 in
16:44 58.8 °F 51.3 °F 30.15 in SSE 1.0 mph 9.0 mph 76 % 0.00 in
16:49 58.8 °F 51.6 °F 30.15 in SSE 1.0 mph 8.0 mph 77 % 0.00 in
16:54 58.8 °F 51.6 °F 30.15 in ENE 6.0 mph 8.0 mph 77 % 0.00 in
17:00 59.0 °F 51.8 °F 30.15 in SE 1.0 mph 9.0 mph 77 % 0.00 in
17:05 59.0 °F 51.8 °F 30.15 in SSE 3.0 mph 9.0 mph 77 % 0.00 in
17:10 59.0 °F 51.8 °F 30.15 in ESE 3.0 mph 9.0 mph 77 % 0.00 in
17:15 59.0 °F 52.2 °F 30.15 in ESE 1.0 mph 7.0 mph 78 % 0.00 in
17:20 59.2 °F 52.3 °F 30.15 in ESE 3.0 mph 7.0 mph 78 % 0.00 in
17:25 59.2 °F 52.3 °F 30.15 in ESE 1.0 mph 5.0 mph 78 % 0.00 in
17:30 59.2 °F 52.7 °F 30.15 in ESE 3.0 mph 6.0 mph 79 % 0.00 in
17:35 59.2 °F 52.7 °F 30.15 in ESE 3.0 mph 6.0 mph 79 % 0.00 in
17:40 59.2 °F 53.1 °F 30.16 in ESE 4.0 mph 6.0 mph 80 % 0.00 in
17:45 59.2 °F 53.1 °F 30.15 in East 5.0 mph 7.0 mph 80 % 0.00 in
17:50 59.2 °F 53.1 °F 30.15 in ESE 2.0 mph 7.0 mph 80 % 0.00 in
17:55 59.2 °F 53.1 °F 30.15 in SE 2.0 mph 7.0 mph 80 % 0.00 in
18:00 59.2 °F 53.1 °F 30.16 in ESE 4.0 mph 6.0 mph 80 % 0.00 in
18:05 59.2 °F 53.1 °F 30.16 in SE 2.0 mph 6.0 mph 80 % 0.00 in
18:10 59.0 °F 52.9 °F 30.16 in East 3.0 mph 6.0 mph 80 % 0.00 in
18:15 59.0 °F 52.9 °F 30.16 in ESE 5.0 mph 7.0 mph 80 % 0.00 in
18:20 59.0 °F 52.9 °F 30.15 in SSE 2.0 mph 7.0 mph 80 % 0.00 in
18:25 58.8 °F 52.7 °F 30.15 in SSE 2.0 mph 8.0 mph 80 % 0.00 in
18:30 59.0 °F 53.2 °F 30.15 in SE 4.0 mph 8.0 mph 81 % 0.00 in
18:35 59.0 °F 53.2 °F 30.15 in SE 3.0 mph 8.0 mph 81 % 0.00 in
18:40 59.0 °F 53.2 °F 30.15 in SE 1.0 mph 8.0 mph 81 % 0.00 in
18:45 59.0 °F 53.2 °F 30.15 in ENE 3.0 mph 8.0 mph 81 % 0.00 in
18:50 59.2 °F 53.6 °F 30.15 in East 2.0 mph 5.0 mph 82 % 0.00 in
18:55 59.2 °F 53.6 °F 30.15 in SE 1.0 mph 5.0 mph 82 % 0.00 in
19:00 59.2 °F 53.6 °F 30.16 in East 3.0 mph 5.0 mph 82 % 0.00 in
19:05 59.2 °F 54.0 °F 30.16 in SE 2.0 mph 4.0 mph 83 % 0.00 in
19:10 59.2 °F 54.0 °F 30.16 in SE 3.0 mph 4.0 mph 83 % 0.00 in
19:16 59.2 °F 54.3 °F 30.15 in ESE 3.0 mph 4.0 mph 84 % 0.00 in
19:21 59.4 °F 54.5 °F 30.15 in SSE 1.0 mph 4.0 mph 84 % 0.00 in
19:26 59.4 °F 54.9 °F 30.15 in SE 1.0 mph 5.0 mph 85 % 0.00 in
19:31 59.5 °F 55.4 °F 30.15 in ESE 1.0 mph 5.0 mph 86 % 0.00 in
19:36 59.5 °F 55.6 °F 30.15 in ESE 3.0 mph 5.0 mph 87 % 0.00 in
19:41 59.7 °F 56.1 °F 30.15 in ESE 3.0 mph 6.0 mph 88 % 0.00 in
19:46 59.7 °F 56.5 °F 30.15 in ESE 4.0 mph 6.0 mph 89 % 0.00 in
19:51 59.7 °F 56.5 °F 30.15 in East 6.0 mph 6.0 mph 89 % 0.00 in
19:56 59.7 °F 56.8 °F 30.15 in SSW 4.0 mph 7.0 mph 90 % 0.00 in
20:01 59.7 °F 56.8 °F 30.15 in SE 3.0 mph 9.0 mph 90 % 0.00 in
20:06 59.7 °F 56.8 °F 30.15 in SE 1.0 mph 9.0 mph 90 % 0.00 in
20:11 59.7 °F 57.0 °F 30.16 in ESE 4.0 mph 9.0 mph 91 % 0.00 in
20:16 59.7 °F 57.0 °F 30.15 in SE 3.0 mph 7.0 mph 91 % 0.00 in
20:21 59.5 °F 56.8 °F 30.15 in ESE 1.0 mph 8.0 mph 91 % 0.00 in
20:26 59.5 °F 56.8 °F 30.15 in South 2.0 mph 8.0 mph 91 % 0.00 in
20:31 59.7 °F 57.4 °F 30.15 in ESE 1.0 mph 8.0 mph 92 % 0.00 in
20:36 59.7 °F 57.4 °F 30.15 in Calm   6.0 mph 92 % 0.00 in
20:41 59.7 °F 57.4 °F 30.15 in East 2.0 mph 6.0 mph 92 % 0.00 in
20:46 59.7 °F 57.4 °F 30.15 in ENE 1.0 mph 6.0 mph 92 % 0.00 in
20:51 59.7 °F 57.4 °F 30.15 in SE 1.0 mph 4.0 mph 92 % 0.00 in
20:56 59.9 °F 57.6 °F 30.15 in ESE 2.0 mph 4.0 mph 92 % 0.00 in
21:01 59.9 °F 57.6 °F 30.14 in ESE 2.0 mph 4.0 mph 92 % 0.00 in
21:07 60.1 °F 57.7 °F 30.14 in SSE 2.0 mph 4.0 mph 92 % 0.00 in
21:12 60.1 °F 57.7 °F 30.14 in SE 2.0 mph 4.0 mph 92 % 0.00 in
21:17 60.1 °F 57.7 °F 30.14 in ENE 3.0 mph 7.0 mph 92 % 0.00 in
21:22 60.1 °F 57.7 °F 30.14 in East 1.0 mph 7.0 mph 92 % 0.00 in
21:27 60.3 °F 58.3 °F 30.14 in ESE 2.0 mph 7.0 mph 93 % 0.00 in
21:32 60.4 °F 58.5 °F 30.14 in ESE 2.0 mph 7.0 mph 93 % 0.00 in
21:37 60.4 °F 58.5 °F 30.14 in SSE 1.0 mph 8.0 mph 93 % 0.00 in
21:42 60.4 °F 58.5 °F 30.14 in SE 2.0 mph 8.0 mph 93 % 0.00 in
21:47 60.6 °F 58.6 °F 30.14 in ESE 3.0 mph 8.0 mph 93 % 0.00 in
21:52 60.6 °F 58.6 °F 30.14 in ESE 6.0 mph 6.0 mph 93 % 0.00 in
21:57 60.8 °F 58.8 °F 30.14 in SE 4.0 mph 7.0 mph 93 % 0.00 in
22:02 60.8 °F 58.8 °F 30.14 in Calm   7.0 mph 93 % 0.00 in
22:07 61.0 °F 59.0 °F 30.14 in Calm   7.0 mph 93 % 0.00 in
22:12 61.0 °F 59.2 °F 30.14 in ESE 2.0 mph 5.0 mph 94 % 0.00 in
22:17 61.2 °F 59.4 °F 30.14 in SE 2.0 mph 5.0 mph 94 % 0.00 in
22:22 61.2 °F 59.4 °F 30.14 in SE 1.0 mph 5.0 mph 94 % 0.00 in
22:27 61.2 °F 59.4 °F 30.14 in ESE 5.0 mph 5.0 mph 94 % 0.00 in
22:32 61.2 °F 59.4 °F 30.14 in Calm   6.0 mph 94 % 0.00 in
22:37 61.3 °F 59.5 °F 30.14 in SE 1.0 mph 6.0 mph 94 % 0.00 in
22:42 61.3 °F 59.5 °F 30.14 in SE 4.0 mph 6.0 mph 94 % 0.00 in
22:47 61.3 °F 59.5 °F 30.13 in SE 3.0 mph 6.0 mph 94 % 0.00 in
22:52 61.3 °F 59.5 °F 30.13 in ESE 1.0 mph 6.0 mph 94 % 0.00 in
22:57 61.5 °F 59.7 °F 30.13 in ESE 3.0 mph 6.0 mph 94 % 0.00 in
23:02 61.5 °F 59.7 °F 30.12 in East 3.0 mph 6.0 mph 94 % 0.00 in
23:07 61.7 °F 59.9 °F 30.12 in ESE 3.0 mph 6.0 mph 94 % 0.00 in
23:12 61.9 °F 60.1 °F 30.12 in ESE 3.0 mph 6.0 mph 94 % 0.00 in
23:17 62.1 °F 60.3 °F 30.12 in SE 3.0 mph 6.0 mph 94 % 0.00 in
23:22 62.2 °F 60.8 °F 30.12 in SE 1.0 mph 7.0 mph 95 % 0.00 in
23:27 62.2 °F 60.8 °F 30.12 in SE 6.0 mph 7.0 mph 95 % 0.00 in
23:32 62.4 °F 61.0 °F 30.12 in SSE 4.0 mph 7.0 mph 95 % 0.00 in
23:37 62.8 °F 61.3 °F 30.11 in SE 4.0 mph 8.0 mph 95 % 0.00 in
23:42 62.8 °F 61.3 °F 30.11 in ESE 4.0 mph 8.0 mph 95 % 0.00 in
23:47 63.0 °F 61.5 °F 30.11 in SE 5.0 mph 8.0 mph 95 % 0.00 in
23:52 63.0 °F 61.5 °F 30.11 in South 4.0 mph 9.0 mph 95 % 0.00 in
23:57 63.0 °F 61.5 °F 30.11 in East 3.0 mph 9.0 mph 95 % 0.00 in
Spring, Texas: Villages of Bridgestone
Compliments of Weather Underground - 3.25 mb

Script developed by  Jim McMurry - jmcmurry@mwt.net Adapted for the template by  Wim van der Kuil - Leuven-Template.eu

You find our weather info also at:

UK Metoffice

WeatherCloud

Weather Underground

Mid-South Weather Network

AWEKAS

Citizen Weather Observer Program (CWOP)

HAMweather, WeatherForYou, PWS Weather

Equipment we use:

Weather-station
Davis Vantage Vue

Weather-program
Meteohub

Weather-server
Debian 7.9 x86 (Guest)

Provider
DreamHost

Davis Vantage Vue

Meteohub

Debian 7.9 x86 (Guest)

DreamHost